Springfield, CO

10:28 AM MST on February 10, 2016 (GMT -0700)
Springfield

Weather History for KSPD - April, 2014

Change the Weather History Date:

Wednesday, April 2, 2014

  Actual Average Record
Temperature  
Mean Temperature 51 °F -  
Max Temperature 77 °F 63 °F 89 °F (2011)
Min Temperature 24 °F 32 °F 24 °F (2002)
Degree Days  
Heating Degree Days 14 17  
Month to date heating degree days 34 35  
Since 1 July heating degree days 4743 4728  
Cooling Degree Days 0 0  
Month to date cooling degree days 0 0  
Year to date cooling degree days 0 0  
Growing Degree Days 2 (Base 50)    
Moisture  
Dew Point 18 °F    
Average Humidity 52    
Maximum Humidity 100    
Minimum Humidity 4    
Precipitation  
Precipitation 0.00 in 0.04 in 0.18 in (2012)
Month to date precipitation 0.00 0.08  
Year to date precipitation 0.70 2.02  
Sea Level Pressure  
Sea Level Pressure 29.56 in    
Wind  
Wind Speed 13 mph (SE)    
Max Wind Speed 37 mph    
Max Gust Speed 45 mph    
T = Trace of Precipitation, MM = Missing Value Source: NWS Daily Summary

Daily Weather History Graph

Daily Weather History Graph

Search for Another Location

Airport or City:

Trip Planner

Search our weather history database for the weather conditions in past years. The results will help you decide how hot, cold, wet, or windy it might be!

Date:

Astronomy

Apr. 02, 2014 Rise Set
Actual Time 6:34 AM MDT 7:14 PM MDT
Civil Twilight 6:08 AM MDT 7:40 PM MDT
Nautical Twilight 5:37 AM MDT 8:11 PM MDT
Astronomical Twilight 5:05 AM MDT 8:43 PM MDT
Moon 8:23 AM MDT (4/2) 10:35 PM MDT (4/2)
Length of Visible Light 13h 32m
Length of Day
12h 39m
Waxing Crescent, 10% of the Moon is Illuminated
Apr 2
Waxing Crescent
Apr 7
First Quarter
Apr 15
Full
Apr 22
Last Quarter
Apr 29
New

Hourly Weather History & Observations

Time (MDT) Temp. Windchill Dew Point Humidity Pressure Visibility Wind Dir Wind Speed Gust Speed Precip Events Conditions
12:56 AM 42.1 °F 36.6 °F 27.0 °F 55% 29.60 in - South 9.2 mph - N/A   Unknown
1:56 AM 36.0 °F 30.3 °F 26.1 °F 67% 29.62 in - NNE 6.9 mph - N/A   Unknown
2:56 AM 30.9 °F - 26.1 °F 82% 29.64 in - Calm Calm - N/A   Unknown
3:56 AM 26.1 °F 18.4 °F 23.0 °F 88% 29.64 in - NNW 6.9 mph - N/A   Unknown
4:56 AM 26.1 °F 19.4 °F 24.1 °F 92% 29.64 in - NNW 5.8 mph - N/A   Unknown
6:56 AM 30.9 °F 22.2 °F 28.9 °F 92% 29.64 in - NE 10.4 mph - N/A   Unknown
7:56 AM 30.9 °F 25.2 °F 30.9 °F 100% 29.67 in - ENE 5.8 mph - N/A   Unknown
8:56 AM 30.9 °F 22.8 °F 30.9 °F 100% 29.68 in - NE 9.2 mph - N/A   Unknown
9:56 AM 33.1 °F 26.1 °F 30.9 °F 92% 29.69 in - ENE 8.1 mph - N/A   Unknown
10:56 AM 43.0 °F 38.2 °F 32.0 °F 65% 29.66 in - East 8.1 mph - N/A   Unknown
1:56 PM 66.9 °F - 24.1 °F 20% 29.51 in - SE 12.7 mph - N/A   Unknown
2:56 PM 73.0 °F - 19.0 °F 13% 29.46 in - SSE 13.8 mph 23.0 mph N/A   Unknown
3:25 PM 77.0 °F - 1.0 °F 5% 29.54 in - SSW 21.9 mph 35.7 mph N/A   Unknown
3:56 PM 73.0 °F - -4.0 °F 5% 29.44 in - South 31.1 mph 46.0 mph N/A   Unknown
4:56 PM 73.9 °F - -7.1 °F 4% 29.42 in - SW 24.2 mph 38.0 mph N/A   Unknown
5:56 PM 72.0 °F - -4.0 °F 5% 29.42 in - SSW 19.6 mph 32.2 mph N/A   Unknown
6:56 PM 69.1 °F - -6.0 °F 5% 29.43 in - SSW 20.7 mph 31.1 mph N/A   Unknown
7:56 PM 64.9 °F - -5.1 °F 6% 29.46 in - SSW 16.1 mph - N/A   Unknown
8:56 PM 55.9 °F - 1.0 °F 11% 29.50 in - SSW 11.5 mph - N/A   Unknown
9:56 PM 48.9 °F - 1.9 °F 15% 29.52 in - SSW 6.9 mph - N/A   Unknown
10:33 PM 48.9 °F - 32.0 °F 52% 29.58 in - NNE 12.7 mph 19.6 mph N/A   Unknown
10:56 PM 44.1 °F 35.4 °F 37.9 °F 79% 29.53 in - ENE 21.9 mph 27.6 mph N/A   Unknown
11:56 PM 39.9 °F 31.4 °F 37.9 °F 93% 29.56 in - NE 16.1 mph 24.2 mph N/A   Unknown